Location: Unspecified
(34.4950°S, 58.5160°W)
Time: 14:45:49
(UTC+00:00)

BlueWalker 3 - Pass Details

Date: 16 February 2026
Orbit: 451 x 458 km, 53.2° (Epoch: 4 March)

Event Time Altitude Azimuth Distance (km) Brightness Sun altitude
Rises 23:06:50 0° 342° (NNW) 2,450 5.4 -4.9°
Reaches altitude 10° 23:09:11 10° 355° (N) 1,587 4.3 -5.4°
Maximum altitude 23:12:11 25° 53° (NE) 952 2.8 -6.0°
Drops below altitude 10° 23:15:13 10° 110° (ESE) 1,609 4.0 -6.6°
Sets 23:17:37 0° 123° (ESE) 2,493 5.1 -7.0°
